﻿測定場所 (Monitoring sites),日付 (Measurement date),時間 (Measurement time),線量率 最大値 (max) μGy/h,線量率 最小値 (min) μGy/h,線量率 平均値 (average) μGy/h,
大田 (Ota),2012-07-22,23:01～24:00,0.0589,0.0529,0.0560,
大田 (Ota),2012-07-22,22:01～23:00,0.0603,0.0534,0.0568,
大田 (Ota),2012-07-22,21:01～22:00,0.0600,0.0535,0.0567,
大田 (Ota),2012-07-22,20:01～21:00,0.0614,0.0540,0.0573,
大田 (Ota),2012-07-22,19:01～20:00,0.0596,0.0532,0.0567,
大田 (Ota),2012-07-22,18:01～19:00,0.0609,0.0536,0.0566,
大田 (Ota),2012-07-22,17:01～18:00,0.0601,0.0531,0.0562,
大田 (Ota),2012-07-22,16:01～17:00,0.0612,0.0539,0.0570,
大田 (Ota),2012-07-22,15:01～16:00,0.0593,0.0531,0.0568,
大田 (Ota),2012-07-22,14:01～15:00,0.0600,0.0529,0.0565,
大田 (Ota),2012-07-22,13:01～14:00,0.0586,0.0520,0.0562,
大田 (Ota),2012-07-22,12:01～13:00,0.0619,0.0527,0.0566,
大田 (Ota),2012-07-22,11:01～12:00,0.0618,0.0533,0.0568,
大田 (Ota),2012-07-22,10:01～11:00,0.0607,0.0523,0.0566,
大田 (Ota),2012-07-22,09:01～10:00,0.0607,0.0526,0.0571,
大田 (Ota),2012-07-22,08:01～09:00,0.0608,0.0538,0.0570,
大田 (Ota),2012-07-22,07:01～08:00,0.0598,0.0527,0.0564,
大田 (Ota),2012-07-22,06:01～07:00,0.0612,0.0516,0.0564,
大田 (Ota),2012-07-22,05:01～06:00,0.0618,0.0532,0.0577,
大田 (Ota),2012-07-22,04:01～05:00,0.0614,0.0539,0.0581,
大田 (Ota),2012-07-22,03:01～04:00,0.0615,0.0548,0.0575,
大田 (Ota),2012-07-22,02:01～03:00,0.0612,0.0547,0.0576,
大田 (Ota),2012-07-22,01:01～02:00,0.0606,0.0537,0.0567,
大田 (Ota),2012-07-22,00:01～01:00,0.0603,0.0529,0.0564,
大田 (Ota),2012-07-21,23:01～24:00,0.0597,0.0524,0.0565,
大田 (Ota),2012-07-21,22:01～23:00,0.0590,0.0528,0.0560,
大田 (Ota),2012-07-21,21:01～22:00,0.0602,0.0531,0.0564,
大田 (Ota),2012-07-21,20:01～21:00,0.0600,0.0519,0.0559,
大田 (Ota),2012-07-21,19:01～20:00,0.0588,0.0529,0.0561,
大田 (Ota),2012-07-21,18:01～19:00,0.0609,0.0513,0.0559,
大田 (Ota),2012-07-21,17:01～18:00,0.0604,0.0530,0.0565,
大田 (Ota),2012-07-21,16:01～17:00,0.0600,0.0531,0.0569,
大田 (Ota),2012-07-21,15:01～16:00,0.0607,0.0543,0.0576,
大田 (Ota),2012-07-21,14:01～15:00,0.0602,0.0539,0.0575,
大田 (Ota),2012-07-21,13:01～14:00,0.0646,0.0563,0.0597,
大田 (Ota),2012-07-21,12:01～13:00,0.0670,0.0558,0.0609,
大田 (Ota),2012-07-21,11:01～12:00,0.0608,0.0512,0.0567,
大田 (Ota),2012-07-21,10:01～11:00,0.0607,0.0524,0.0564,
大田 (Ota),2012-07-21,09:01～10:00,0.0606,0.0534,0.0568,
大田 (Ota),2012-07-21,08:01～09:00,0.0592,0.0536,0.0563,
大田 (Ota),2012-07-21,07:01～08:00,0.0600,0.0534,0.0568,
大田 (Ota),2012-07-21,06:01～07:00,0.0610,0.0545,0.0578,
大田 (Ota),2012-07-21,05:01～06:00,0.0611,0.0533,0.0572,
大田 (Ota),2012-07-21,04:01～05:00,0.0597,0.0516,0.0561,
大田 (Ota),2012-07-21,03:01～04:00,0.0607,0.0519,0.0566,
大田 (Ota),2012-07-21,02:01～03:00,0.0633,0.0555,0.0580,
大田 (Ota),2012-07-21,01:01～02:00,0.0683,0.0563,0.0611,
大田 (Ota),2012-07-21,00:01～01:00,0.0649,0.0577,0.0615,
大田 (Ota),2012-07-20,23:01～24:00,0.0641,0.0554,0.0598,
大田 (Ota),2012-07-20,22:01～23:00,0.0638,0.0539,0.0586,
大田 (Ota),2012-07-20,21:01～22:00,0.0601,0.0539,0.0569,
大田 (Ota),2012-07-20,20:01～21:00,0.0607,0.0525,0.0569,
大田 (Ota),2012-07-20,19:01～20:00,0.0639,0.0552,0.0587,
大田 (Ota),2012-07-20,18:01～19:00,0.0639,0.0550,0.0601,
大田 (Ota),2012-07-20,17:01～18:00,0.0657,0.0577,0.0616,
大田 (Ota),2012-07-20,16:01～17:00,0.0631,0.0553,0.0591,
大田 (Ota),2012-07-20,15:01～16:00,0.0629,0.0569,0.0600,
大田 (Ota),2012-07-20,14:01～15:00,0.0687,0.0587,0.0633,
大田 (Ota),2012-07-20,13:01～14:00,0.0708,0.0623,0.0666,
大田 (Ota),2012-07-20,12:01～13:00,0.0658,0.0547,0.0602,
大田 (Ota),2012-07-20,11:01～12:00,0.0616,0.0545,0.0580,
大田 (Ota),2012-07-20,10:01～11:00,0.0632,0.0539,0.0580,
大田 (Ota),2012-07-20,09:01～10:00,0.0612,0.0548,0.0584,
大田 (Ota),2012-07-20,08:01～09:00,0.0608,0.0541,0.0578,
大田 (Ota),2012-07-20,07:01～08:00,0.0625,0.0544,0.0582,
大田 (Ota),2012-07-20,06:01～07:00,0.0615,0.0544,0.0580,
大田 (Ota),2012-07-20,05:01～06:00,0.0623,0.0552,0.0584,
大田 (Ota),2012-07-20,04:01～05:00,0.0639,0.0552,0.0585,
大田 (Ota),2012-07-20,03:01～04:00,0.0608,0.0553,0.0579,
大田 (Ota),2012-07-20,02:01～03:00,0.0611,0.0536,0.0579,
大田 (Ota),2012-07-20,01:01～02:00,0.0619,0.0542,0.0581,
大田 (Ota),2012-07-20,00:01～01:00,0.0629,0.0547,0.0585,
大田 (Ota),2012-07-19,23:01～24:00,0.0617,0.0558,0.0586,
大田 (Ota),2012-07-19,22:01～23:00,0.0612,0.0547,0.0585,
大田 (Ota),2012-07-19,21:01～22:00,0.0623,0.0557,0.0587,
大田 (Ota),2012-07-19,20:01～21:00,0.0622,0.0550,0.0586,
大田 (Ota),2012-07-19,19:01～20:00,0.0618,0.0551,0.0586,
大田 (Ota),2012-07-19,18:01～19:00,0.0637,0.0552,0.0589,
大田 (Ota),2012-07-19,17:01～18:00,0.0632,0.0542,0.0585,
大田 (Ota),2012-07-19,16:01～17:00,0.0618,0.0547,0.0584,
大田 (Ota),2012-07-19,15:01～16:00,0.0624,0.0554,0.0585,
大田 (Ota),2012-07-19,14:01～15:00,0.0623,0.0547,0.0588,
大田 (Ota),2012-07-19,13:01～14:00,0.0638,0.0547,0.0585,
大田 (Ota),2012-07-19,12:01～13:00,0.0623,0.0551,0.0583,
大田 (Ota),2012-07-19,11:01～12:00,0.0610,0.0540,0.0584,
大田 (Ota),2012-07-19,10:01～11:00,0.0620,0.0548,0.0581,
大田 (Ota),2012-07-19,09:01～10:00,0.0625,0.0540,0.0583,
大田 (Ota),2012-07-19,08:01～09:00,0.0624,0.0548,0.0580,
大田 (Ota),2012-07-19,07:01～08:00,0.0615,0.0555,0.0582,
大田 (Ota),2012-07-19,06:01～07:00,0.0615,0.0553,0.0581,
大田 (Ota),2012-07-19,05:01～06:00,0.0609,0.0539,0.0579,
大田 (Ota),2012-07-19,04:01～05:00,0.0614,0.0544,0.0579,
大田 (Ota),2012-07-19,03:01～04:00,0.0614,0.0533,0.0579,
大田 (Ota),2012-07-19,02:01～03:00,0.0622,0.0547,0.0580,
大田 (Ota),2012-07-19,01:01～02:00,0.0606,0.0545,0.0578,
大田 (Ota),2012-07-19,00:01～01:00,0.0611,0.0548,0.0579,
大田 (Ota),2012-07-18,23:01～24:00,0.0618,0.0546,0.0581,
大田 (Ota),2012-07-18,22:01～23:00,0.0632,0.0552,0.0588,
大田 (Ota),2012-07-18,21:01～22:00,0.0617,0.0542,0.0585,
大田 (Ota),2012-07-18,20:01～21:00,0.0621,0.0549,0.0576,
大田 (Ota),2012-07-18,19:01～20:00,0.0621,0.0536,0.0577,
大田 (Ota),2012-07-18,18:01～19:00,0.0624,0.0541,0.0580,
大田 (Ota),2012-07-18,17:01～18:00,0.0605,0.0532,0.0578,
大田 (Ota),2012-07-18,16:01～17:00,0.0615,0.0540,0.0578,
大田 (Ota),2012-07-18,15:01～16:00,0.0612,0.0538,0.0577,
大田 (Ota),2012-07-18,14:01～15:00,0.0616,0.0536,0.0579,
大田 (Ota),2012-07-18,13:01～14:00,0.0620,0.0536,0.0578,
大田 (Ota),2012-07-18,12:01～13:00,0.0608,0.0547,0.0575,
大田 (Ota),2012-07-18,11:01～12:00,0.0612,0.0535,0.0580,
大田 (Ota),2012-07-18,10:01～11:00,0.0629,0.0543,0.0580,
大田 (Ota),2012-07-18,09:01～10:00,0.0616,0.0534,0.0578,
大田 (Ota),2012-07-18,08:01～09:00,0.0621,0.0540,0.0579,
大田 (Ota),2012-07-18,07:01～08:00,0.0609,0.0543,0.0581,
大田 (Ota),2012-07-18,06:01～07:00,0.0634,0.0545,0.0580,
大田 (Ota),2012-07-18,05:01～06:00,0.0606,0.0549,0.0580,
大田 (Ota),2012-07-18,04:01～05:00,0.0653,0.0555,0.0581,
大田 (Ota),2012-07-18,03:01～04:00,0.0630,0.0543,0.0579,
大田 (Ota),2012-07-18,02:01～03:00,0.0620,0.0526,0.0577,
大田 (Ota),2012-07-18,01:01～02:00,0.0610,0.0541,0.0575,
大田 (Ota),2012-07-18,00:01～01:00,0.0607,0.0540,0.0574,
大田 (Ota),2012-07-17,23:01～24:00,0.0621,0.0536,0.0576,
大田 (Ota),2012-07-17,22:01～23:00,0.0616,0.0547,0.0577,
大田 (Ota),2012-07-17,21:01～22:00,0.0622,0.0546,0.0581,
大田 (Ota),2012-07-17,20:01～21:00,0.0618,0.0527,0.0572,
大田 (Ota),2012-07-17,19:01～20:00,0.0612,0.0546,0.0579,
大田 (Ota),2012-07-17,18:01～19:00,0.0634,0.0537,0.0576,
大田 (Ota),2012-07-17,17:01～18:00,0.0610,0.0540,0.0574,
大田 (Ota),2012-07-17,16:01～17:00,0.0612,0.0550,0.0575,
大田 (Ota),2012-07-17,15:01～16:00,0.0610,0.0531,0.0574,
大田 (Ota),2012-07-17,14:01～15:00,0.0611,0.0544,0.0577,
大田 (Ota),2012-07-17,13:01～14:00,0.0607,0.0543,0.0573,
大田 (Ota),2012-07-17,12:01～13:00,0.0604,0.0528,0.0574,
大田 (Ota),2012-07-17,11:01～12:00,0.0601,0.0534,0.0569,
大田 (Ota),2012-07-17,10:01～11:00,0.0615,0.0545,0.0574,
大田 (Ota),2012-07-17,09:01～10:00,0.0615,0.0537,0.0574,
大田 (Ota),2012-07-17,08:01～09:00,0.0607,0.0532,0.0573,
大田 (Ota),2012-07-17,07:01～08:00,0.0612,0.0528,0.0573,
大田 (Ota),2012-07-17,06:01～07:00,0.0614,0.0549,0.0574,
大田 (Ota),2012-07-17,05:01～06:00,0.0626,0.0537,0.0572,
大田 (Ota),2012-07-17,04:01～05:00,0.0617,0.0538,0.0572,
大田 (Ota),2012-07-17,03:01～04:00,0.0607,0.0541,0.0572,
大田 (Ota),2012-07-17,02:01～03:00,0.0605,0.0532,0.0568,
大田 (Ota),2012-07-17,01:01～02:00,0.0600,0.0536,0.0571,
大田 (Ota),2012-07-17,00:01～01:00,0.0605,0.0532,0.0574,
大田 (Ota),2012-07-16,23:01～24:00,0.0627,0.0522,0.0573,
大田 (Ota),2012-07-16,22:01～23:00,0.0604,0.0533,0.0572,
大田 (Ota),2012-07-16,21:01～22:00,0.0608,0.0511,0.0573,
大田 (Ota),2012-07-16,20:01～21:00,0.0623,0.0525,0.0569,
大田 (Ota),2012-07-16,19:01～20:00,0.0612,0.0544,0.0570,
大田 (Ota),2012-07-16,18:01～19:00,0.0605,0.0539,0.0573,
大田 (Ota),2012-07-16,17:01～18:00,0.0607,0.0537,0.0571,
大田 (Ota),2012-07-16,16:01～17:00,0.0609,0.0535,0.0574,
大田 (Ota),2012-07-16,15:01～16:00,0.0613,0.0523,0.0570,
大田 (Ota),2012-07-16,14:01～15:00,0.0610,0.0531,0.0572,
大田 (Ota),2012-07-16,13:01～14:00,0.0613,0.0542,0.0570,
大田 (Ota),2012-07-16,12:01～13:00,0.0596,0.0534,0.0567,
大田 (Ota),2012-07-16,11:01～12:00,0.0612,0.0539,0.0570,
大田 (Ota),2012-07-16,10:01～11:00,0.0599,0.0538,0.0566,
大田 (Ota),2012-07-16,09:01～10:00,0.0612,0.0535,0.0567,
大田 (Ota),2012-07-16,08:01～09:00,0.0600,0.0542,0.0569,
大田 (Ota),2012-07-16,07:01～08:00,0.0613,0.0541,0.0574,
大田 (Ota),2012-07-16,06:01～07:00,0.0602,0.0541,0.0567,
大田 (Ota),2012-07-16,05:01～06:00,0.0605,0.0535,0.0570,
大田 (Ota),2012-07-16,04:01～05:00,0.0612,0.0530,0.0568,
大田 (Ota),2012-07-16,03:01～04:00,0.0613,0.0542,0.0569,
大田 (Ota),2012-07-16,02:01～03:00,0.0607,0.0540,0.0569,
大田 (Ota),2012-07-16,01:01～02:00,0.0596,0.0532,0.0565,
大田 (Ota),2012-07-16,00:01～01:00,0.0593,0.0538,0.0567,
